Weather History for New Iberia, LA

Change the Weather History Date:

Wednesday, October 2, 2013

  Actual Average Record
Temperature  
Mean Temperature 83 °F 74 °F  
Max Temperature 91 °F 85 °F 95 °F (1998)
Min Temperature 75 °F 64 °F 47 °F (1984)
Degree Days  
Heating Degree Days 0 0  
Month to date heating degree days 0 0  
Since 1 July heating degree days 0 1  
Cooling Degree Days 18 9  
Month to date cooling degree days 35 19  
Year to date cooling degree days 2913 2575  
Growing Degree Days 32 (Base 50)    
Moisture  
Dew Point 71 °F    
Average Humidity 72    
Maximum Humidity 94    
Minimum Humidity 50    
Precipitation  
Precipitation 0.00 in 0.21 in 1.53 in (1961)
Month to date precipitation 0.04 0.42  
Year to date precipitation 57.13 45.90  
Sea Level Pressure  
Sea Level Pressure 29.99 in    
Wind  
Wind Speed 6 mph (ESE)    
Max Wind Speed 10 mph    
Max Gust Speed 14 mph    
Visibility 10 miles    
Events      
T = Trace of Precipitation, MM = Missing Value Source: NWS Daily Summary

Daily Weather History Graph

Daily Weather History Graph

Search for Another Location

Airport:

Trip Planner

Search our weather history database for the weather conditions in past years. The results will help you decide how hot, cold, wet, or windy it might be!

Date:

Astronomy

Oct. 02, 2013 Rise Set
Actual Time 7:01 AM CDT 6:51 PM CDT
Civil Twilight 6:37 AM CDT 7:15 PM CDT
Nautical Twilight 6:10 AM CDT 7:42 PM CDT
Astronomical Twilight 5:42 AM CDT 8:10 PM CDT
Moon 4:43 AM CDT (10/2) 5:21 PM CDT (10/2)
Length of Visible Light 12h 37m
Length of Day
11h 49m
Waning Crescent, 6% of the Moon is Illuminated
Oct 2
Waning Crescent
Oct 4
New
Oct 11
First Quarter
Oct 18
Full
Oct 26
Last Quarter

Hourly Weather History & Observations

Time (CDT) Temp. Heat Index Dew Point Humidity Pressure Visibility Wind Dir Wind Speed Gust Speed Precip Events Conditions
12:53 AM 75.9 °F - 72.0 °F 87% 30.00 in 10.0 mi ESE 6.9 mph - N/A   Clear
1:53 AM 75.9 °F - 72.0 °F 87% 30.00 in 10.0 mi ESE 3.5 mph - N/A   Clear
2:53 AM 75.9 °F - 72.0 °F 87% 29.99 in 10.0 mi East 4.6 mph - N/A   Clear
3:53 AM 75.9 °F - 72.0 °F 87% 29.98 in 10.0 mi East 4.6 mph - N/A   Clear
4:53 AM 75.9 °F - 72.0 °F 87% 29.99 in 10.0 mi ESE 4.6 mph - N/A   Clear
5:34 AM 75.2 °F - 73.4 °F 94% 29.99 in 10.0 mi East 3.5 mph - N/A   Scattered Clouds
5:43 AM 75.2 °F - 73.4 °F 94% 29.99 in 10.0 mi Calm Calm - N/A   Mostly Cloudy
5:53 AM 75.9 °F - 73.0 °F 91% 29.99 in 10.0 mi ENE 3.5 mph - N/A   Mostly Cloudy
6:28 AM 75.2 °F - 71.6 °F 89% 30.01 in 10.0 mi East 4.6 mph - N/A   Scattered Clouds
6:53 AM 75.9 °F - 72.0 °F 87% 30.00 in 9.0 mi Calm Calm - N/A   Clear
7:53 AM 75.0 °F - 71.1 °F 87% 30.03 in 10.0 mi East 6.9 mph - N/A   Partly Cloudy
8:53 AM 78.1 °F - 71.1 °F 79% 30.04 in 10.0 mi ESE 8.1 mph - N/A   Partly Cloudy
9:53 AM 81.0 °F 84.9 °F 71.1 °F 72% 30.03 in 10.0 mi SE 8.1 mph - N/A   Clear
10:53 AM 84.9 °F 90.1 °F 71.1 °F 63% 30.03 in 10.0 mi East 6.9 mph - N/A   Clear
11:53 AM 87.1 °F 92.0 °F 70.0 °F 57% 30.03 in 10.0 mi SE 6.9 mph - N/A   Clear
12:53 PM 87.1 °F 92.8 °F 71.1 °F 59% 30.00 in 10.0 mi ESE 3.5 mph - N/A   Partly Cloudy
1:53 PM 89.1 °F 93.7 °F 69.1 °F 52% 29.98 in 10.0 mi ESE 6.9 mph - N/A   Clear
2:53 PM 89.1 °F 93.7 °F 69.1 °F 52% 29.96 in 10.0 mi ESE 9.2 mph - N/A   Scattered Clouds
3:53 PM 89.1 °F 92.9 °F 68.0 °F 50% 29.95 in 10.0 mi East 6.9 mph - N/A   Clear
4:53 PM 89.1 °F 93.7 °F 69.1 °F 52% 29.95 in 10.0 mi SE 6.9 mph - N/A   Scattered Clouds
5:53 PM 88.0 °F 92.1 °F 69.1 °F 53% 29.95 in 10.0 mi East 5.8 mph - N/A   Clear
6:53 PM 84.0 °F 88.4 °F 70.0 °F 63% 29.96 in 10.0 mi ESE 6.9 mph - N/A   Clear
7:53 PM 82.0 °F 85.5 °F 69.1 °F 65% 29.96 in 10.0 mi ESE 6.9 mph - N/A   Clear
8:53 PM 80.1 °F 83.6 °F 71.1 °F 74% 29.99 in 10.0 mi East 6.9 mph - N/A   Clear
9:53 PM 79.0 °F - 72.0 °F 79% 30.00 in 10.0 mi East 5.8 mph - N/A   Clear
10:53 PM 79.0 °F - 73.0 °F 82% 30.00 in 10.0 mi ESE 5.8 mph - N/A   Clear
11:53 PM 78.1 °F - 73.0 °F 84% 30.00 in 10.0 mi East 5.8 mph - N/A   Clear